AAY891 KPGD-KTYS

Flight info

Callsign AAY891
Flight time N/A
Altitude 34000
Route ROGAN LAL BRUTS Q118 THRSR/N0458F330 LORNN
Aircraft A320/M-SDE3FGHIRWY/LB1

Departure

Time 2026-04-26 21:29
Airport Punta Gorda Airport (KPGD)

Arrival

Time N/A
Airport McGhee Tyson Airport (KTYS)
Time Latitude Longitude Altitude Speed Heading
2026-04-26 20:59 26.91682 -81.99748 30 ft 0 kts 241°
2026-04-26 21:19 26.91683 -81.99748 30 ft 1 kts 242°
2026-04-26 21:20 26.91695 -81.99725 29 ft 4 kts 230°
2026-04-26 21:20 26.91715 -81.99704 28 ft 4 kts 210°
2026-04-26 21:20 26.91739 -81.99694 28 ft 4 kts 176°
2026-04-26 21:20 26.91754 -81.99698 28 ft 0 kts 149°
2026-04-26 21:23 26.91750 -81.99696 28 ft 4 kts 149°
2026-04-26 21:23 26.91705 -81.99654 28 ft 8 kts 104°
2026-04-26 21:23 26.91739 -81.99579 29 ft 15 kts 60°
2026-04-26 21:23 26.91773 -81.99470 29 ft 14 kts 84°
2026-04-26 21:24 26.91782 -81.99371 31 ft 11 kts 84°
2026-04-26 21:24 26.91788 -81.99294 32 ft 12 kts 84°
2026-04-26 21:24 26.91800 -81.99159 36 ft 17 kts 84°
2026-04-26 21:24 26.91810 -81.99036 36 ft 15 kts 85°
2026-04-26 21:25 26.91819 -81.98916 36 ft 19 kts 84°
2026-04-26 21:25 26.91873 -81.98825 36 ft 10 kts 31°
2026-04-26 21:25 26.91940 -81.98782 35 ft 11 kts 29°
2026-04-26 21:25 26.92005 -81.98742 35 ft 11 kts 29°
2026-04-26 21:26 26.92083 -81.98693 32 ft 15 kts 29°
2026-04-26 21:26 26.92180 -81.98633 35 ft 16 kts 29°
2026-04-26 21:26 26.92276 -81.98574 33 ft 16 kts 29°
2026-04-26 21:26 26.92374 -81.98514 33 ft 16 kts 29°
2026-04-26 21:27 26.92469 -81.98454 36 ft 17 kts 29°
2026-04-26 21:27 26.92584 -81.98384 36 ft 20 kts 28°
2026-04-26 21:27 26.92706 -81.98310 37 ft 15 kts 30°
2026-04-26 21:27 26.92776 -81.98253 38 ft 11 kts 63°
2026-04-26 21:28 26.92759 -81.98188 39 ft 8 kts 124°
2026-04-26 21:28 26.92725 -81.98161 39 ft 6 kts 178°
2026-04-26 21:28 26.92702 -81.98169 40 ft 0 kts 210°
2026-04-26 21:28 26.92694 -81.98175 37 ft 17 kts 210°
2026-04-26 21:29 26.92322 -81.98406 35 ft 103 kts 209°
2026-04-26 21:29 26.91492 -81.98925 121 ft 160 kts 211°
2026-04-26 21:29 26.90441 -81.99395 888 ft 168 kts 185°
2026-04-26 21:29 26.89253 -81.99357 1773 ft 173 kts 177°
2026-04-26 21:30 26.88003 -81.99155 2092 ft 197 kts 174°
2026-04-26 21:30 26.86577 -81.98661 2118 ft 234 kts 149°
2026-04-26 21:30 26.85430 -81.97251 2409 ft 262 kts 117°
2026-04-26 21:30 26.85016 -81.95206 2977 ft 277 kts 89°
2026-04-26 21:31 26.85158 -81.93032 3783 ft 283 kts 84°
2026-04-26 21:31 26.85376 -81.90855 4620 ft 286 kts 84°
2026-04-26 21:31 26.85601 -81.88635 5478 ft 288 kts 83°
2026-04-26 21:31 26.85824 -81.86393 6307 ft 291 kts 83°
2026-04-26 21:32 26.86043 -81.84132 7115 ft 293 kts 83°
2026-04-26 21:32 26.86257 -81.81848 7902 ft 297 kts 83°
2026-04-26 21:32 26.86471 -81.79537 8662 ft 300 kts 83°
2026-04-26 21:32 26.86685 -81.77199 9410 ft 304 kts 83°
2026-04-26 21:33 26.86897 -81.74822 9854 ft 309 kts 83°
2026-04-26 21:33 26.87101 -81.72423 9972 ft 309 kts 83°
2026-04-26 21:33 26.87303 -81.70029 9984 ft 309 kts 83°
2026-04-26 21:33 26.87503 -81.67638 9985 ft 308 kts 83°
2026-04-26 21:34 26.87707 -81.65218 10006 ft 324 kts 83°
2026-04-26 21:34 26.87934 -81.62590 10000 ft 353 kts 83°
2026-04-26 21:34 26.88283 -81.59836 9986 ft 357 kts 73°
2026-04-26 21:34 26.89338 -81.57289 10289 ft 363 kts 52°
2026-04-26 21:35 26.91054 -81.55292 10987 ft 361 kts 33°
2026-04-26 21:35 26.93275 -81.54020 11673 ft 358 kts 13°
2026-04-26 21:35 26.95723 -81.53669 12355 ft 355 kts 354°
2026-04-26 21:35 26.98119 -81.54243 13031 ft 352 kts 335°
2026-04-26 21:36 27.00253 -81.55574 13696 ft 352 kts 327°
2026-04-26 21:36 27.01723 -81.56440 14115 ft 356 kts 334°
2026-04-26 21:36 27.04760 -81.57903 14907 ft 362 kts 336°
2026-04-26 21:36 27.07107 -81.58960 15486 ft 366 kts 336°
2026-04-26 21:37 27.09483 -81.60012 16112 ft 368 kts 336°
2026-04-26 21:37 27.11879 -81.61077 16679 ft 372 kts 336°
2026-04-26 21:37 27.14286 -81.62162 17230 ft 375 kts 336°
2026-04-26 21:37 27.16710 -81.63270 17762 ft 378 kts 336°
2026-04-26 21:38 27.19155 -81.64395 18296 ft 380 kts 335°
2026-04-26 21:38 27.21612 -81.65527 18792 ft 384 kts 335°
2026-04-26 21:38 27.24093 -81.66667 19260 ft 387 kts 335°
2026-04-26 21:38 27.26598 -81.67825 19722 ft 390 kts 335°
2026-04-26 21:39 27.29116 -81.68994 20186 ft 393 kts 335°
2026-04-26 21:39 27.31654 -81.70173 20631 ft 397 kts 335°
2026-04-26 21:39 27.34214 -81.71366 21064 ft 399 kts 335°
2026-04-26 21:39 27.36790 -81.72566 21479 ft 403 kts 335°
2026-04-26 21:40 27.39386 -81.73773 21896 ft 405 kts 335°
2026-04-26 21:40 27.42005 -81.74991 22299 ft 409 kts 335°
2026-04-26 21:40 27.44640 -81.76214 22702 ft 412 kts 335°
2026-04-26 21:40 27.47299 -81.77445 23100 ft 414 kts 335°
2026-04-26 21:41 27.49971 -81.78686 23485 ft 416 kts 335°
2026-04-26 21:41 27.52659 -81.79937 23847 ft 419 kts 335°
2026-04-26 21:41 27.55336 -81.81185 24188 ft 423 kts 335°
2026-04-26 21:41 27.58062 -81.82453 24534 ft 425 kts 335°
2026-04-26 21:42 27.60809 -81.83727 24890 ft 427 kts 335°
2026-04-26 21:42 27.63568 -81.85007 25240 ft 429 kts 335°
2026-04-26 21:42 27.66337 -81.86296 25585 ft 431 kts 335°
2026-04-26 21:42 27.69118 -81.87595 25923 ft 433 kts 335°
2026-04-26 21:43 27.71909 -81.88899 26252 ft 436 kts 334°
2026-04-26 21:43 27.74713 -81.90209 26598 ft 437 kts 334°
2026-04-26 21:43 27.77535 -81.91527 26915 ft 439 kts 334°
2026-04-26 21:43 27.80360 -81.92849 27232 ft 441 kts 334°
2026-04-26 21:44 27.83206 -81.94180 27533 ft 443 kts 334°
2026-04-26 21:44 27.86059 -81.95515 27814 ft 445 kts 334°
2026-04-26 21:44 27.88917 -81.96851 27924 ft 445 kts 334°
2026-04-26 21:44 27.91784 -81.98193 28003 ft 446 kts 334°
2026-04-26 21:45 27.94626 -81.99527 28297 ft 448 kts 334°
2026-04-26 21:45 27.97542 -82.00899 28576 ft 449 kts 334°
2026-04-26 21:45 28.00301 -82.02441 28830 ft 448 kts 328°
2026-04-26 21:45 28.03043 -82.04143 29091 ft 450 kts 328°
2026-04-26 21:46 28.05790 -82.05855 29344 ft 451 kts 328°
2026-04-26 21:46 28.08538 -82.07575 29621 ft 452 kts 328°
2026-04-26 21:46 28.11290 -82.09298 29987 ft 450 kts 328°
2026-04-26 21:46 28.14024 -82.11007 30353 ft 449 kts 328°
2026-04-26 21:47 28.16758 -82.12714 30729 ft 447 kts 328°
2026-04-26 21:47 28.19477 -82.14413 31107 ft 446 kts 328°
2026-04-26 21:47 28.22183 -82.16102 31486 ft 443 kts 328°
2026-04-26 21:47 28.24878 -82.17789 31860 ft 441 kts 328°
2026-04-26 21:48 28.27551 -82.19469 32226 ft 438 kts 328°
2026-04-26 21:48 28.30213 -82.21142 32590 ft 436 kts 328°
2026-04-26 21:48 28.32863 -82.22806 32940 ft 434 kts 328°
2026-04-26 21:48 28.35504 -82.24463 33285 ft 433 kts 328°
2026-04-26 21:49 28.38135 -82.26113 33643 ft 430 kts 328°
2026-04-26 21:49 28.40752 -82.27753 33904 ft 429 kts 329°
2026-04-26 21:49 28.45963 -82.31019 33959 ft 427 kts 328°
2026-04-26 21:50 28.50277 -82.33732 33959 ft 426 kts 328°
2026-04-26 21:50 28.56338 -82.37556 33965 ft 425 kts 328°
2026-04-26 21:51 28.61511 -82.40824 33964 ft 425 kts 328°
2026-04-26 21:51 28.66640 -82.44059 33960 ft 424 kts 328°
2026-04-26 21:52 28.71803 -82.47325 33964 ft 424 kts 328°
2026-04-26 21:52 28.76958 -82.50589 33961 ft 423 kts 328°
2026-04-26 21:53 28.82103 -82.53846 33964 ft 423 kts 328°
2026-04-26 21:53 28.87242 -82.57105 33965 ft 422 kts 328°
2026-04-26 21:54 28.92368 -82.60363 33968 ft 422 kts 328°
2026-04-26 21:54 28.97491 -82.63618 33972 ft 421 kts 328°
2026-04-26 21:55 29.02606 -82.66874 33970 ft 421 kts 328°
2026-04-26 21:55 29.07715 -82.70134 33967 ft 420 kts 328°
2026-04-26 21:56 29.12821 -82.73395 33962 ft 420 kts 328°
2026-04-26 21:56 29.17892 -82.76633 33959 ft 420 kts 328°
2026-04-26 21:57 29.22988 -82.79891 33956 ft 419 kts 328°
2026-04-26 21:57 29.28074 -82.83143 33951 ft 419 kts 328°
2026-04-26 21:58 29.33162 -82.86399 33953 ft 419 kts 328°
2026-04-26 21:58 29.38241 -82.89662 33933 ft 419 kts 327°
2026-04-26 21:59 29.43320 -82.92930 33934 ft 418 kts 327°
2026-04-26 21:59 29.48391 -82.96191 33929 ft 418 kts 327°
2026-04-26 22:00 29.53586 -82.99206 33926 ft 420 kts 334°
2026-04-26 22:00 29.58998 -83.01779 33922 ft 421 kts 334°
2026-04-26 22:01 29.64412 -83.04358 33920 ft 421 kts 334°
2026-04-26 22:01 29.68908 -83.06492 33919 ft 420 kts 334°
2026-04-26 22:02 29.74315 -83.09064 33917 ft 420 kts 334°
2026-04-26 22:02 29.79721 -83.11646 33917 ft 420 kts 334°
2026-04-26 22:03 29.85119 -83.14228 33917 ft 420 kts 334°
2026-04-26 22:03 29.90527 -83.16816 33914 ft 420 kts 334°